Content
SEND FEEDBACK

Daily
Averages
Monthly
Summary
United States of America

INARAJAN, GUAM


Home > North America > United States > Guam
Elevation: 85 meters     Latitude: 13 18N     Longitude: 144 44E

WEATHER
 
SELECT A DAY
Number of Records: 341,631;   Date Range: 1/1/95 - 7/20/14
 
SHARE

PRINT THIS DATA

[ ← Previous Day ]
WEATHER ALMANAC - 28 JUNE, 2013
[ Next Day → ]
[ °F ]   °C
We're sorry. There is no daily almanac available for Inarajan, Guam on 28 June, 2013.
WEATHER BY HOUR - 28 JUNE, 2013
[ °F ]   °C
Local TimeTemperatureDewpointHumidityBarometerVisibilityWind DirectionWind SpeedGust SpeedPrecipitationEventsConditions
12:17 AM26 °C24 °C89 %1009.8 hPa16.1 kmEast (100°)7.4 km/hMostly Cloudy
12:20 AM26 °C24 °C89 %1009.8 hPa16.1 kmEast (100°)7.4 km/hScattered Clouds
12:25 AM26 °C23 °C83 %1010.2 hPa16.1 kmEast (100°)7.4 km/hMostly Cloudy
12:26 AM26 °C23 °C83 %1010.2 hPa16.1 kmEast (100°)7.4 km/hMostly Cloudy
12:36 AM26 °C24 °C89 %1010.2 hPa16.1 kmEast (80°)9.3 km/hMostly Cloudy
12:41 AM26 °C23 °C83 %1010.2 hPa16.1 kmEast (90°)9.3 km/hMostly Cloudy
12:42 AM26 °C23 °C83 %1010.2 hPa16.1 kmEast (90°)9.3 km/hMostly Cloudy
12:45 AM26 °C24 °C89 %1010.2 hPa16.1 kmEast (90°)9.3 km/hMostly Cloudy
12:55 AM26.6 °C23.9 °C85 %1010.2 hPa16.1 kmEast (100°)7.4 km/hOvercast
1:16 AM27 °C24 °C84 %1010.2 hPa16.1 kmEast (90°)14.8 km/hScattered Clouds
1:20 AM27 °C24 °C84 %1010.2 hPa16.1 kmEast (90°)14.8 km/hMostly Cloudy
1:22 AM27 °C24 °C84 %1009.8 hPa16.1 kmEast (90°)13 km/hScattered Clouds
1:28 AM27 °C24 °C84 %1009.8 hPa16.1 kmEast (90°)13 km/hMostly Cloudy
1:29 AM27 °C24 °C84 %1010.2 hPa16.1 kmEast (90°)13 km/hScattered Clouds
1:32 AM27 °C24 °C84 %1009.8 hPa16.1 kmEast (100°)13 km/hMostly Cloudy
1:39 AM27 °C24 °C84 %1009.8 hPa16.1 kmEast (100°)16.7 km/hMostly Cloudy
1:55 AM26.3 °C23.6 °C85 %1009.8 hPa16.1 kmEast (100°)9.3 km/hScattered Clouds
2:24 AM27 °C24 °C84 %1009.8 hPa16.1 kmESE (120°)7.4 km/hMostly Cloudy
2:30 AM27 °C24 °C84 %1009.8 hPa16.1 kmESE (110°)7.4 km/hMostly Cloudy
2:34 AM27 °C24 °C84 %1009.8 hPa16.1 kmEast (90°)7.4 km/hMostly Cloudy
2:35 AM27 °C24 °C84 %1009.8 hPa16.1 kmEast (90°)7.4 km/hMostly Cloudy
2:39 AM27 °C24 °C84 %1009.8 hPa16.1 kmEast (80°)9.3 km/hMostly Cloudy
2:42 AM27 °C24 °C84 %1009.8 hPa16.1 kmEast (90°)9.3 km/hMostly Cloudy
2:53 AM26 °C23 °C83 %1009.8 hPa12.9 kmEast (100°)20.4 km/hRainLight Rain
2:55 AM26 °C23.3 °C85 %1010.2 hPa9.7 kmEast (80°)20.4 km/h0.25 mmRainRain
2:59 AM26 °C23 °C83 %1009.8 hPa4 kmENE (70°)20.4 km/hRainHeavy Rain
3:00 AM26 °C24 °C89 %1009.8 hPa3.2 kmEast (80°)22.2 km/hRainHeavy Rain
3:01 AM26 °C24 °C89 %1009.8 hPa2.4 kmEast (80°)20.4 km/hRainHeavy Rain
3:03 AM25 °C24 °C94 %1009.8 hPa1.9 kmENE (70°)13 km/hRainHeavy Rain
3:04 AM25 °C24 °C94 %1009.8 hPa1.9 kmENE (70°)13 km/hRainHeavy Rain
3:05 AM25 °C24 °C94 %1009.8 hPa1.9 kmENE (60°)13 km/hRainHeavy Rain
3:06 AM25 °C24 °C94 %1009.8 hPa1.6 kmENE (60°)11.1 km/hRainHeavy Rain
3:07 AM25 °C24 °C94 %1009.8 hPa1.6 kmENE (70°)9.3 km/hRainHeavy Rain
3:11 AM25 °C24 °C94 %1009.8 hPa1.9 kmENE (70°)9.3 km/hRainHeavy Rain
3:12 AM25 °C24 °C94 %1009.8 hPa1.9 kmENE (70°)7.4 km/hRainHeavy Rain
3:13 AM25 °C24 °C94 %1009.8 hPa2.4 kmENE (60°)7.4 km/hRainHeavy Rain
3:15 AM25 °C24 °C94 %1009.8 hPa3.2 kmENE (70°)7.4 km/hRainLight Rain
3:17 AM25 °C24 °C94 %1009.8 hPa4 kmENE (60°)7.4 km/hRainLight Rain
3:18 AM25 °C24 °C94 %1009.8 hPa4.8 kmNE (50°)5.6 km/hRainLight Rain
3:25 AM25 °C23 °C89 %1009.8 hPa16.1 kmCalmMostly Cloudy
3:26 AM25 °C23 °C89 %1009.8 hPa16.1 kmCalmScattered Clouds
3:55 AM25 °C23.7 °C92 %1009.8 hPa16.1 kmCalm10.16 mmScattered Clouds
4:15 AM25 °C23 °C89 %1009.8 hPa16.1 kmEast (80°)11.1 km/hRainLight Rain
4:17 AM25 °C23 °C89 %1009.8 hPa14.5 kmEast (100°)9.3 km/hRainLight Rain
4:24 AM26 °C24 °C89 %1009.5 hPa16.1 kmEast (90°)9.3 km/hLight Drizzle
4:26 AM26 °C23 °C83 %1009.5 hPa16.1 kmEast (90°)11.1 km/hScattered Clouds
4:55 AM25.5 °C22.9 °C85 %1009.8 hPa16.1 kmEast (90°)14.8 km/h0 mmClear
5:55 AM26 °C24.1 °C89 %1010.5 hPa16.1 kmENE (70°)9.3 km/hPartly Cloudy
6:11 AM26 °C24 °C89 %1010.5 hPa11.3 kmENE (60°)16.7 km/hRainLight Rain
6:13 AM26 °C24 °C89 %1010.5 hPa8 kmEast (80°)18.5 km/hRainRain
6:17 AM26 °C24 °C89 %1010.5 hPa8 kmENE (70°)13 km/hRainRain
6:19 AM26 °C24 °C89 %1010.5 hPa8 kmEast (80°)14.8 km/hRainLight Rain
6:24 AM26 °C24 °C89 %1010.5 hPa16.1 kmEast (80°)16.7 km/hScattered Clouds
6:55 AM26.7 °C24.6 °C88 %1010.8 hPa16.1 kmEast (90°)16.7 km/h0.76 mmPartly Cloudy
7:52 AM27 °C24 °C84 %1011.2 hPa16.1 kmEast (80°)16.7 km/hMostly Cloudy
7:55 AM27.1 °C24.3 °C85 %1011.2 hPa16.1 kmEast (80°)18.5 km/hMostly Cloudy
8:02 AM27 °C24 °C84 %1011.5 hPa16.1 kmEast (90°)27.8 km/hRainLight Rain
8:09 AM26 °C24 °C89 %1011.5 hPa4 kmEast (90°)16.7 km/hRainLight Rain
8:14 AM26 °C23 °C83 %1011.5 hPa4.8 kmESE (110°)11.1 km/hRainLight Rain
8:18 AM26 °C24 °C89 %1011.5 hPa11.3 kmESE (110°)13 km/hMostly Cloudy
8:20 AM26 °C24 °C89 %1011.5 hPa16.1 kmSE (130°)11.1 km/hScattered Clouds
8:36 AM27 °C24 °C84 %1011.5 hPa16.1 kmEast (90°)9.3 km/hPartly Cloudy
8:55 AM27.4 °C24.7 °C85 %1011.2 hPa16.1 kmEast (90°)16.7 km/h0.76 mmClear
9:04 AM27 °C24 °C84 %1011.2 hPa16.1 kmEast (90°)22.2 km/h33.3 km/hLight Drizzle
9:12 AM27 °C25 °C89 %1011.2 hPa16.1 kmENE (70°)22.2 km/hScattered Clouds
9:55 AM28.6 °C23.6 °C74 %1011.2 hPa16.1 kmEast (80°)13 km/h0 mmClear
10:55 AM28.6 °C24.3 °C77 %1010.8 hPa16.1 kmESE (120°)16.7 km/hPartly Cloudy
11:55 AM29.4 °C25.2 °C78 %1010.5 hPa16.1 kmESE (110°)18.5 km/hMostly Cloudy
12:02 PM29 °C25 °C79 %1010.5 hPa16.1 kmEast (100°)16.7 km/hMostly Cloudy
12:03 PM29 °C25 °C79 %1010.5 hPa16.1 kmEast (100°)18.5 km/hMostly Cloudy
12:06 PM29 °C25 °C79 %1010.5 hPa16.1 kmESE (120°)20.4 km/hMostly Cloudy
12:29 PM29 °C25 °C79 %1010.5 hPa16.1 kmESE (110°)16.7 km/hScattered Clouds
12:41 PM29 °C25 °C79 %1010.2 hPa16.1 kmEast (90°)18.5 km/hRainLight Rain
12:48 PM29 °C25 °C79 %1010.2 hPa16.1 kmESE (110°)14.8 km/hScattered Clouds
12:55 PM28.9 °C25 °C79 %1010.2 hPa16.1 kmEast (100°)16.7 km/h0 mmMostly Cloudy
1:04 PM28 °C24 °C79 %1010.2 hPa8 kmEast (100°)27.8 km/h35.2 km/hRainLight Rain
1:06 PM28 °C25 °C84 %1010.2 hPa2.9 kmESE (120°)24.1 km/h35.2 km/hRainHeavy Rain
1:07 PM27 °C24 °C84 %1010.2 hPa1.9 kmESE (120°)16.7 km/h35.2 km/hRainHeavy Rain
1:09 PM27 °C24 °C84 %1010.2 hPa1.6 kmEast (90°)16.7 km/h35.2 km/hRainHeavy Rain
1:10 PM27 °C24 °C84 %1010.2 hPa1.3 kmEast (100°)11.1 km/h35.2 km/hRainHeavy Rain
1:16 PM26 °C24 °C89 %1009.8 hPa1.6 kmSE (130°)11.1 km/hRainLight Rain
1:17 PM26 °C24 °C89 %1009.8 hPa1.9 kmSE (130°)9.3 km/hRainLight Rain
1:18 PM26 °C24 °C89 %1009.8 hPa2.4 kmSE (130°)7.4 km/hRainLight Rain
1:19 PM26 °C24 °C89 %1009.8 hPa2.9 kmSE (130°)7.4 km/hRainLight Rain
1:20 PM26 °C24 °C89 %1009.8 hPa4 kmSE (130°)9.3 km/hRainLight Rain
1:21 PM27 °C25 °C89 %1009.8 hPa6.4 kmESE (120°)9.3 km/hMostly Cloudy
1:23 PM27 °C25 °C89 %1009.8 hPa14.5 kmESE (110°)9.3 km/hScattered Clouds
1:55 PM28.6 °C25.9 °C85 %1009.5 hPa16.1 kmEast (100°)13 km/h4.83 mmScattered Clouds
2:09 PM29 °C26 °C84 %1009.5 hPa16.1 kmSE (130°)18.5 km/hMostly Cloudy
2:14 PM29 °C26 °C84 %1009.5 hPa16.1 kmESE (120°)14.8 km/hMostly Cloudy
2:41 PM29 °C25 °C79 %1009.1 hPa16.1 kmEast (90°)20.4 km/hMostly Cloudy
2:45 PM29 °C25 °C79 %1009.1 hPa16.1 kmEast (100°)20.4 km/hScattered Clouds
2:55 PM29.5 °C25.1 °C77 %1009.1 hPa16.1 kmEast (90°)18.5 km/hScattered Clouds
3:55 PM29.5 °C25 °C77 %1008.8 hPa16.1 kmEast (100°)20.4 km/hScattered Clouds
4:34 PM29 °C25 °C79 %1008.8 hPa16.1 kmESE (110°)18.5 km/hMostly Cloudy
4:38 PM29 °C25 °C79 %1009.1 hPa16.1 kmEast (100°)16.7 km/hMostly Cloudy
4:50 PM29 °C25 °C79 %1009.1 hPa16.1 kmESE (120°)18.5 km/hScattered Clouds
4:55 PM28.7 °C24.8 °C79 %1009.1 hPa16.1 kmEast (100°)18.5 km/hScattered Clouds
4:57 PM29 °C25 °C79 %1009.1 hPa16.1 kmESE (110°)16.7 km/hMostly Cloudy
5:27 PM29 °C25 °C79 %1009.1 hPa16.1 kmEast (100°)16.7 km/hMostly Cloudy
5:29 PM28 °C25 °C84 %1009.1 hPa16.1 kmEast (100°)16.7 km/hMostly Cloudy
5:37 PM28 °C25 °C84 %1009.1 hPa16.1 kmESE (110°)18.5 km/hScattered Clouds
5:55 PM28.5 °C24.7 °C80 %1009.1 hPa16.1 kmESE (110°)16.7 km/hScattered Clouds
6:11 PM28 °C25 °C84 %1009.5 hPa16.1 kmESE (110°)14.8 km/hMostly Cloudy
6:19 PM28 °C25 °C84 %1009.5 hPa16.1 kmESE (110°)14.8 km/hMostly Cloudy
6:55 PM27.3 °C24.6 °C85 %1009.8 hPa16.1 kmEast (100°)14.8 km/hPartly Cloudy
7:21 PM27 °C25 °C89 %1010.2 hPa16.1 kmESE (110°)14.8 km/hMostly Cloudy
7:23 PM27 °C25 °C89 %1010.2 hPa16.1 kmESE (110°)14.8 km/hMostly Cloudy
7:55 PM27.3 °C24.6 °C85 %1010.5 hPa16.1 kmEast (100°)14.8 km/hMostly Cloudy
8:26 PM27 °C25 °C89 %1010.8 hPa16.1 kmEast (100°)14.8 km/hMostly Cloudy
8:32 PM27 °C25 °C89 %1010.8 hPa16.1 kmEast (90°)16.7 km/hMostly Cloudy
8:35 PM27 °C25 °C89 %1010.8 hPa16.1 kmEast (100°)16.7 km/hMostly Cloudy
8:40 PM27 °C24 °C84 %1010.8 hPa16.1 kmEast (100°)14.8 km/hScattered Clouds
8:45 PM27 °C25 °C89 %1010.8 hPa16.1 kmEast (90°)18.5 km/hMostly Cloudy
8:55 PM27.3 °C25.1 °C88 %1010.8 hPa16.1 kmEast (80°)16.7 km/hMostly Cloudy
9:00 PM27 °C25 °C89 %1010.8 hPa16.1 kmEast (80°)20.4 km/hMostly Cloudy
9:04 PM27 °C25 °C89 %1010.8 hPa16.1 kmEast (90°)16.7 km/hMostly Cloudy
9:13 PM27 °C25 °C89 %1010.8 hPa16.1 kmEast (100°)16.7 km/hMostly Cloudy
9:16 PM27 °C25 °C89 %1010.8 hPa16.1 kmEast (100°)16.7 km/hMostly Cloudy
9:20 PM27 °C25 °C89 %1010.8 hPa16.1 kmEast (100°)18.5 km/hScattered Clouds
9:21 PM27 °C25 °C89 %1010.8 hPa16.1 kmEast (100°)18.5 km/hMostly Cloudy
9:22 PM27 °C25 °C89 %1010.8 hPa16.1 kmEast (100°)16.7 km/hScattered Clouds
9:26 PM27 °C25 °C89 %1010.8 hPa16.1 kmEast (100°)18.5 km/hMostly Cloudy
9:28 PM27 °C25 °C89 %1010.8 hPa16.1 kmEast (90°)22.2 km/hMostly Cloudy
9:55 PM27.2 °C24.9 °C87 %1011.2 hPa16.1 kmEast (90°)18.5 km/hMostly Cloudy
10:07 PM27 °C25 °C89 %1011.2 hPa16.1 kmEast (90°)16.7 km/hMostly Cloudy
10:11 PM27 °C25 °C89 %1011.2 hPa16.1 kmEast (90°)16.7 km/hScattered Clouds
10:40 PM27 °C25 °C89 %1011.5 hPa16.1 kmEast (80°)18.5 km/hMostly Cloudy
10:43 PM27 °C25 °C89 %1011.5 hPa16.1 kmEast (80°)16.7 km/hScattered Clouds
10:55 PM26.9 °C25.4 °C91 %1011.5 hPa16.1 kmEast (90°)14.8 km/hScattered Clouds
10:56 PM27 °C25 °C89 %1011.5 hPa16.1 kmEast (80°)13 km/hMostly Cloudy
11:27 PM27 °C25 °C89 %1011.2 hPa16.1 kmEast (100°)18.5 km/hMostly Cloudy
11:30 PM27 °C25 °C89 %1011.2 hPa16.1 kmEast (100°)22.2 km/hMostly Cloudy
11:33 PM27 °C25 °C89 %1011.2 hPa16.1 kmEast (100°)20.4 km/hMostly Cloudy
11:46 PM27 °C25 °C89 %1011.2 hPa16.1 kmEast (90°)16.7 km/hMostly Cloudy
11:48 PM27 °C25 °C89 %1011.2 hPa16.1 kmEast (90°)18.5 km/hMostly Cloudy
11:53 PM27 °C25 °C89 %1011.2 hPa16.1 kmEast (80°)18.5 km/hMostly Cloudy
11:54 PM27 °C25 °C89 %1011.2 hPa16.1 kmEast (90°)20.4 km/hMostly Cloudy
11:55 PM26.9 °C24.8 °C88 %1011.2 hPa16.1 kmEast (90°)20.4 km/hMostly Cloudy
Hourly data recorded from PGUA, located 0 kilometers away from Inarajan, Guam







STORIES FROM OUR PARTNERS